OBJECT E, 69101

Orbit data source: Space-Track

You're viewing an Uncataloged Satellite

Recently launched and/or uncataloged satellites may have evolving metadata. Metadata may include but not limited to: Owner, Maufacturer, Bus, Motor, and Mission.

OBJECT E, 69101 is a Chinese satellite in SSO that was launched on Fri, 15 May 2026 UTC via a LIJIAN-1 launch vehicle from the Jiuquan Satellite Launch Center, China (JSC). Unknown objects in Earth's orbit typically refer to objects detected orbiting the Earth but have not yet been identified or cataloged. These objects could be anything from previously untracked satellites, spent rocket stages, debris from satellite collisions, or even natural meteoroids temporarily captured by Earth's gravity.

Loading next visibility...
Identifier
69101, 2026-106E
Orbit
SSO
Country
Flag of CNCN / PRC
Related business
None
Manufacturer
Unknown
Mission
Operational spacecraft
Bus & Motor
Unknown
Mass
Unknown
Launch date (UTC)
2026-05-15 (1 month ago)
Launch vehicle
LIJIAN-1
Launch site
Jiuquan Satellite Launch Center, China (JSC)
Object type
Unknown
Shape & HBR
Unknown shape, 1.1 m
Radar Cross Section
Medium (>0.1 m² and <1 m²)

Expand to show TLE details & history
Last TLE update: 7 hours ago

TLE from 7 hours ago
0 OBJECT E
1 69101U 26106E   26168.79956399  .00005646  00000-0  33598-3 0  9994
2 69101  97.5074 250.8862 0016973 163.6481 196.5301 15.11510739  5077
Epoch: 2026-06-17T19:11Z
TLE epoch observation values (Epoch: 2026-06-17T19:11:22.328Z)
Latitude
0.00003°
Longitude
56.99111°
Altitude
545.915 km
Speed
7.583 km/s
True Right ascension
16h 43m 32s
True Declination
0° 00' 00"
Sunlit
Object was in full shadow at epoch
Visualization orbit readout
Latitude
Unknown
Longitude
Unknown
Altitude
Unknown
Speed
Unknown
Apparent Right ascension
Unknown
Apparent Declination
Unknown
Sunlit
N/A
Visualization observer readout
Local Sidereal Time
13:02:35
Azimuth
Unknown
Elevation
Unknown
Doppler factor
Unknown
Orbital elements
Apogee altitude
540.296 km
Perigee altitude
516.851 km
Semi-major axis
6,906.711 km
Eccentricity
0.0017
Inclination
97.5074°
RAAN
250.8862°
Arg. of periapsis
163.6481°
True anomaly
196.47487°
Mean anomaly
196.5301°
Eccentric anomaly
196.50248°
Mean motion
3.78126 °/min
Orbital period
95.21 mins
BSTAR
0.00033598
Loading maneuver chart data...
Computing Atmospheric mass density...
Loading historical data...
Loading historical data...
Loading historical data...
Loading historical data...
Loading historical data...
Loading historical data...
Loading historical data...
Other satellites on launch #106 in the year 2026 (2026-05-15 UTC)

Documentation

Showing up to 5 results
|